• In Germany
  • List of Countries
  • For 7 days
  • Water Temperature
  • Satellite Maps
  • Weather Map
  • Weather Widgets
  • user-avatar
    Login

    Hourly Weather Solden

    Today, 27 July, Thursday

    Time Temperature Precipitation Wind Pressure Humidity
    00:00 +2°C° 0 mm 2 mps 580 mmHg 86%
    01:00 +1°C° 0 mm 2 mps 580 mmHg 87%
    02:00 +1°C° 0 mm 2 mps 579 mmHg 85%
    03:00 +1°C° 0 mm 2 mps 579 mmHg 84%
    04:00 -1°C° 0 mm 2 mps 579 mmHg 83%
    05:00 +2°C° 0 mm 2 mps 580 mmHg 75%
    06:00 +4°C° 0 mm 2 mps 581 mmHg 68%
    07:00 +7°C° 0 mm 1 mps 582 mmHg 60%
    08:00 +9°C° 0.1 mm 1 mps 583 mmHg 56%
    09:00 +10°C° 0.1 mm 1 mps 584 mmHg 51%
    10:00 +12°C° 0.1 mm 1 mps 584 mmHg 47%
    11:00 +13°C° 0.1 mm 1 mps 585 mmHg 47%
    12:00 +15°C° 0.1 mm 1 mps 585 mmHg 48%
    13:00 +16°C° 0.1 mm 1 mps 586 mmHg 48%
    14:00 +15°C° 0.1 mm 1 mps 586 mmHg 50%
    15:00 +15°C° 0.1 mm 1 mps 585 mmHg 53%
    16:00 +15°C° 0.1 mm 1 mps 585 mmHg 55%
    17:00 +14°C° 0.1 mm 1 mps 584 mmHg 62%
    18:00 +12°C° 0.1 mm 1 mps 584 mmHg 68%
    19:00 +11°C° 0.1 mm 1 mps 583 mmHg 75%
    20:00 +10°C° 0.2 mm 1 mps 583 mmHg 79%
    21:00 +9°C° 0.2 mm 1 mps 583 mmHg 83%
    22:00 +7°C° 0.2 mm 1 mps 583 mmHg 86%
    23:00 +7°C° 0.1 mm 1 mps 583 mmHg 87%

    Tomorrow, 28 July, Friday

    Time Temperature Precipitation Wind Pressure Humidity
    00:00 +7°C° 0.1 mm 1 mps 582 mmHg 88%
    01:00 +6°C° 0.1 mm 1 mps 582 mmHg 89%
    02:00 +6°C° 0 mm 1 mps 582 mmHg 89%
    03:00 +6°C° 0 mm 1 mps 582 mmHg 89%
    04:00 +6°C° 0 mm 1 mps 582 mmHg 89%
    05:00 +7°C° 0.1 mm 1 mps 583 mmHg 85%
    06:00 +8°C° 0.1 mm 1 mps 584 mmHg 81%
    07:00 +10°C° 0.1 mm 1 mps 584 mmHg 78%
    08:00 +12°C° 0 mm 1 mps 585 mmHg 71%
    09:00 +13°C° 0 mm 1 mps 587 mmHg 64%
    10:00 +15°C° 0 mm 1 mps 588 mmHg 57%
    11:00 +16°C° 0.1 mm 1 mps 588 mmHg 56%
    12:00 +17°C° 0.1 mm 2 mps 588 mmHg 55%
    13:00 +17°C° 0.1 mm 2 mps 588 mmHg 54%
    14:00 +17°C° 0.2 mm 2 mps 588 mmHg 56%
    15:00 +17°C° 0.2 mm 2 mps 588 mmHg 58%
    16:00 +17°C° 0.2 mm 2 mps 588 mmHg 60%
    17:00 +16°C° 0.3 mm 2 mps 588 mmHg 68%
    18:00 +14°C° 0.3 mm 2 mps 587 mmHg 75%
    19:00 +13°C° 0.3 mm 1 mps 587 mmHg 83%
    20:00 +12°C° 0.2 mm 1 mps 587 mmHg 87%
    21:00 +10°C° 0.2 mm 1 mps 586 mmHg 91%
    22:00 +8°C° 0.2 mm 0 mps 586 mmHg 95%
    23:00 +8°C° 0.1 mm 0 mps 586 mmHg 95%

    Day after tomorrow, 29 July, Saturday

    Time Temperature Precipitation Wind Pressure Humidity
    00:00 +9°C° 0.1 mm 1 mps 586 mmHg 95%
    01:00 +8°C° 0.1 mm 1 mps 586 mmHg 96%
    02:00 +8°C° 0 mm 1 mps 586 mmHg 95%
    03:00 +8°C° 0 mm 1 mps 586 mmHg 95%
    04:00 +8°C° 0 mm 1 mps 586 mmHg 95%
    05:00 +9°C° 0.1 mm 1 mps 586 mmHg 92%
    06:00 +11°C° 0.1 mm 1 mps 587 mmHg 89%
    07:00 +12°C° 0.1 mm 1 mps 588 mmHg 85%
    08:00 +13°C° 0.2 mm 1 mps 589 mmHg 79%
    09:00 +15°C° 0.2 mm 1 mps 589 mmHg 72%
    10:00 +16°C° 0.2 mm 1 mps 590 mmHg 65%
    11:00 +17°C° 1.1 mm 2 mps 590 mmHg 65%
    12:00 +17°C° 1.1 mm 2 mps 590 mmHg 65%
    13:00 +17°C° 1.1 mm 2 mps 590 mmHg 64%
    14:00 +17°C° 1.8 mm 2 mps 590 mmHg 68%
    15:00 +16°C° 1.8 mm 2 mps 589 mmHg 72%
    16:00 +16°C° 1.8 mm 2 mps 589 mmHg 76%
    17:00 +15°C° 1.5 mm 1 mps 589 mmHg 81%
    18:00 +14°C° 1.5 mm 1 mps 588 mmHg 85%
    19:00 +13°C° 1.5 mm 1 mps 588 mmHg 89%
    20:00 +12°C° 1.1 mm 1 mps 588 mmHg 90%
    21:00 +11°C° 1.1 mm 1 mps 588 mmHg 92%
    22:00 +11°C° 1.1 mm 1 mps 587 mmHg 93%
    23:00 +10°C° 1 mm 1 mps 587 mmHg 93%

    30 July, Sunday

    Time Temperature Precipitation Wind Pressure Humidity
    00:00 +10°C° 1 mm 1 mps 587 mmHg 94%
    01:00 +10°C° 1 mm 1 mps 587 mmHg 94%
    02:00 +10°C° 1 mm 1 mps 587 mmHg 94%
    03:00 +10°C° 1 mm 1 mps 586 mmHg 94%
    04:00 +10°C° 1 mm 1 mps 586 mmHg 94%
    05:00 +10°C° 0.4 mm 1 mps 586 mmHg 91%
    06:00 +11°C° 0.4 mm 1 mps 587 mmHg 89%
    07:00 +11°C° 0.4 mm 1 mps 587 mmHg 87%
    08:00 +13°C° 0.1 mm 1 mps 588 mmHg 79%
    09:00 +15°C° 0.1 mm 1 mps 588 mmHg 70%
    10:00 +18°C° 0.1 mm 1 mps 589 mmHg 62%
    11:00 +17°C° 0.6 mm 2 mps 589 mmHg 60%
    12:00 +18°C° 0.6 mm 2 mps 589 mmHg 59%
    13:00 +18°C° 0.6 mm 2 mps 589 mmHg 58%
    14:00 +18°C° 1.4 mm 2 mps 589 mmHg 62%
    15:00 +17°C° 1.4 mm 2 mps 588 mmHg 66%
    16:00 +16°C° 1.4 mm 2 mps 588 mmHg 70%
    17:00 +15°C° 1.3 mm 2 mps 587 mmHg 75%
    18:00 +14°C° 1.3 mm 1 mps 587 mmHg 81%
    19:00 +13°C° 1.3 mm 1 mps 587 mmHg 86%
    20:00 +12°C° 0.6 mm 1 mps 587 mmHg 88%
    21:00 +11°C° 0.6 mm 1 mps 586 mmHg 90%
    22:00 +10°C° 0.6 mm 1 mps 586 mmHg 93%
    23:00 +10°C° 0 mm 1 mps 586 mmHg 93%

    31 July, Monday

    Time Temperature Precipitation Wind Pressure Humidity
    00:00 +9°C° 0 mm 1 mps 586 mmHg 93%
    01:00 +9°C° 0 mm 1 mps 586 mmHg 94%
    02:00 +9°C° 0 mm 1 mps 586 mmHg 93%
    03:00 +8°C° 0 mm 1 mps 585 mmHg 93%
    04:00 +8°C° 0 mm 1 mps 585 mmHg 93%
    05:00 +9°C° 0 mm 1 mps 586 mmHg 89%
    06:00 +11°C° 0 mm 1 mps 587 mmHg 86%
    07:00 +12°C° 0 mm 1 mps 588 mmHg 83%
    08:00 +14°C° 0 mm 1 mps 589 mmHg 73%
    09:00 +16°C° 0 mm 1 mps 590 mmHg 63%
    10:00 +20°C° 0 mm 1 mps 591 mmHg 53%
    11:00 +19°C° 0 mm 2 mps 591 mmHg 50%
    12:00 +20°C° 0 mm 2 mps 591 mmHg 48%
    13:00 +21°C° 0 mm 2 mps 591 mmHg 45%
    14:00 +20°C° 0.1 mm 2 mps 591 mmHg 47%
    15:00 +20°C° 0.1 mm 2 mps 590 mmHg 48%
    16:00 +20°C° 0.1 mm 3 mps 590 mmHg 50%
    17:00 +19°C° 0.1 mm 2 mps 590 mmHg 58%
    18:00 +17°C° 0.1 mm 2 mps 589 mmHg 66%
    19:00 +16°C° 0.1 mm 2 mps 588 mmHg 74%
    20:00 +14°C° 0 mm 2 mps 588 mmHg 79%
    21:00 +12°C° 0 mm 2 mps 587 mmHg 84%
    22:00 +10°C° 0 mm 2 mps 587 mmHg 89%
    23:00 +9°C° 0 mm 2 mps 587 mmHg 88%

    1 August, Tuesday

    Time Temperature Precipitation Wind Pressure Humidity
    00:00 +9°C° 0 mm 2 mps 587 mmHg 87%
    01:00 +9°C° 0 mm 2 mps 587 mmHg 86%
    02:00 +9°C° 0 mm 2 mps 586 mmHg 85%
    03:00 +8°C° 0 mm 2 mps 586 mmHg 85%
    04:00 +8°C° 0 mm 2 mps 586 mmHg 85%
    05:00 +9°C° 0 mm 2 mps 587 mmHg 80%
    06:00 +12°C° 0 mm 2 mps 587 mmHg 76%
    07:00 +13°C° 0 mm 2 mps 588 mmHg 72%
    08:00 +15°C° 0 mm 2 mps 589 mmHg 62%
    09:00 +17°C° 0 mm 2 mps 590 mmHg 52%
    10:00 +20°C° 0 mm 3 mps 591 mmHg 43%
    11:00 +20°C° 0 mm 3 mps 591 mmHg 41%
    12:00 +21°C° 0 mm 3 mps 591 mmHg 38%
    13:00 +22°C° 0 mm 4 mps 591 mmHg 36%
    14:00 +22°C° 0 mm 4 mps 591 mmHg 37%
    15:00 +22°C° 0 mm 4 mps 590 mmHg 39%
    16:00 +21°C° 0 mm 4 mps 590 mmHg 40%
    17:00 +20°C° 0.1 mm 3 mps 589 mmHg 48%
    18:00 +18°C° 0.1 mm 2 mps 589 mmHg 57%
    19:00 +16°C° 0.1 mm 2 mps 588 mmHg 65%
    20:00 +14°C° 0.1 mm 2 mps 587 mmHg 70%
    21:00 +13°C° 0.1 mm 2 mps 587 mmHg 75%
    22:00 +10°C° 0.1 mm 2 mps 586 mmHg 80%
    23:00 +10°C° 0.2 mm 2 mps 586 mmHg 81%
    Show more